HAWK-3B (48931 NORAD) Tracking and Keplerian Element Data

This shows tracking and keplerian element data for the satellite.

Feedback or suggestion? Click here.




ElementValue
Catalog48931
NameHAWK-3B
Epoch Orbit1287
Epoch Day261.90038638
Epoch Year2021
RAAN29.5371
Inclination97.5077
Eccentricity0.0015364
Argument of Perigee329.3569
Mean Anonmoly30.6764
Mean Motion15.13898191
Decay Rate7.08E-06
L11 48931U 21059BE 21261.90038638 .00000708 00000-0 42672-4 0 9991
L22 48931 97.5077 29.5371 0015364 329.3569 30.6764 15.13898191 12875

Live tracking and technical data element details for HAWK-3B (NORAD 48931). HAWK-3B can be tracked NOW for your location showing map with azimuth and elevation plus other details from your city location.

Track the satellite on the map from your city or location and see movement details for azimuth, elevation, latitude, longitude, range, height, and movement on the map or in text.







IsCatalogInMostPopularTable: catalog: 48931, numindb: 15
Update: records affected: 1



GetName: 48931 HAWK-3B

Hit Count: updated at: Fri, 24 Sep 2021 17:57:49 GMT